sat.trackr.live / text

‹ back to catalog

STARLINK-32801

NORAD 63035 · 2025-034G

PAYLOAD ACTIVE UNKNOWN

§ Identity

Operator
Country
US
Launch date
2025-02-18
Launch site
AFETR
Launch vehicle
Mass (kg)
RCS (m²)

Purposes: comms

External: N2YO · Heavens-Above · Gunter

§ Orbital elements

Epoch: 2026-09-21T17:19:55.014528Z

Period
93.85 min
Inclination
53.1600°
Eccentricity
0.0001025
Mean motion
15.34399139 rev/d
Perigee alt
462.0 km
Apogee alt
463.4 km
Semi-major
6,840.8 km
B*
4.3589e-4
RAAN
63.7891°
Arg perigee
93.3784°
Mean anomaly
266.7336°
Rev number
8,914

§ Raw data

STARLINK-328011 63035U 25034G   26264.72216452  .00014379  00000+0  43589-3 0  99952 63035  53.1600  63.7891 0001025  93.3784 266.7336 15.34399139 89142

JSON: /api/v1/satellites/63035 · /tle

For live sub-satellite position, see the globe view (requires WebGL).

§ Visibility from observer

Set your observer location to see the next 7 days of passes ≥ 10°. The values pass through the URL so the page stays shareable.

No JS? Fill the form by hand. The geolocation button needs JavaScript.